Home > Weather > Brest > Past weeks

Flag for France Past Weather in Brest, Brittany, France — Yesterday and Last 2 Weeks

Now
55 °F

Overcast.


Feels Like: 55 °F
Forecast: 59 / 65 °F
Wind: 5 mph from Southwest

Location: Brest Airport

Current Time: Jun 29, 2016 at 3:56:54 AM

Latest Report: Jun 29, 2016 at 3:00 AM


Visibility: N/A

Pressure: 30.01 "Hg

Humidity: 88%

Dew Point: 52 °F

Location of BrestLocation

Past Weather in Brest — Graph

°F

Brest Temperature Yesterday

Maximum temperature yesterday: 64 °F (at 7:30 PM)
Minimum temperature yesterday: 54 °F (at 2:30 AM)
Average temperature yesterday: 58 °F

High & Low Weather Summary for the Past Weeks

 TemperatureHumidityPressure
High72 °F (Jun 22, 5:00 PM)100% (Jun 15, 4:00 AM)30.33 "Hg (Jun 15, 4:00 AM)
Low50 °F (Jun 15, 4:00 AM)52% (Jun 15, 3:30 PM)29.50 "Hg (Jun 15, 3:30 AM)
Average59 °F86%30.01 "Hg
* Reported Jun 14 2:00 AM — Jun 29 2:30 AM, Brest, Weather by CustomWeather, © 2016

Note: Actual official high and low records may vary slightly from our data, if they occured in-between our weather recording intervals... More about our weather records

Advertising

Brest Weather History for the Previous 24 Hours

Scroll right to see more
 ConditionsComfort  
Time TempWeatherWind HumidityBarometerVisibility
2:30 AM
Wed, Jun 29
55 °FOvercast.5 mph94%30.01 "HgN/A
2:00 AM54 °FOvercast.5 mph94%30.04 "HgN/A
1:30 AM52 °FPassing clouds.5 mph100%30.04 "HgN/A
1:00 AM52 °FClear.5 mph94%30.04 "Hg10 mi
12:30 AM52 °FClear.3 mph94%30.04 "Hg10 mi
12:00 AM54 °FClear.3 mph94%30.04 "Hg10 mi
11:30 PM
Tue, Jun 28
54 °FClear.5 mph94%30.04 "Hg10 mi
11:00 PM55 °FPassing clouds.5 mph88%30.01 "HgN/A
10:30 PM55 °FPartly sunny.5 mph88%30.01 "HgN/A
9:30 PM59 °FScattered clouds.9 mph82%30.01 "HgN/A
9:00 PM61 °FScattered clouds.10 mph77%30.01 "HgN/A
8:30 PM61 °FScattered clouds.10 mph77%29.98 "HgN/A
8:00 PM61 °FPartly sunny.10 mph77%29.98 "HgN/A
7:30 PM64 °FPartly sunny.13 mph78%29.98 "HgN/A
7:00 PM63 °FScattered clouds.12 mph77%29.98 "HgN/A
6:30 PM63 °FBroken clouds.15 mph83%29.98 "HgN/A
6:00 PM63 °FScattered clouds.10 mph88%29.98 "HgN/A
5:30 PM61 °FDrizzle. Partly sunny.13 mph94%29.98 "Hg5 mi
5:00 PM61 °FDrizzle. Fog.16 mph94%29.98 "Hg1 mi
4:30 PM59 °FDrizzle. Low clouds.17 mph100%29.98 "Hg2 mi
4:00 PM59 °FDrizzle. Low clouds.18 mph94%29.98 "Hg2 mi
3:30 PM59 °FDrizzle. Overcast.21 mph88%29.98 "Hg4 mi
3:00 PM61 °FOvercast.17 mph83%30.01 "HgN/A
2:30 PM61 °FDrizzle. Overcast.23 mph77%30.01 "Hg5 mi
2:00 PM63 °FBroken clouds.21 mph73%30.01 "HgN/A
1:30 PM63 °FBroken clouds.22 mph77%30.01 "HgN/A
1:00 PM63 °FBroken clouds.17 mph77%30.04 "HgN/A
12:35 PM61 °FBroken clouds.18 mph83%30.04 "HgN/A
12:00 PM61 °FBroken clouds.16 mph83%30.04 "HgN/A
11:30 AM61 °FBroken clouds.14 mph77%30.04 "HgN/A
11:00 AM61 °FBroken clouds.14 mph72%30.07 "HgN/A
10:30 AM61 °FBroken clouds.14 mph72%30.07 "HgN/A
10:00 AM61 °FPartly sunny.13 mph72%30.07 "HgN/A
9:30 AM61 °FScattered clouds.7 mph83%30.07 "HgN/A
9:00 AM59 °FScattered clouds.9 mph82%30.07 "HgN/A
8:30 AM59 °FScattered clouds.5 mph88%30.09 "HgN/A
8:00 AM57 °FPartly sunny.5 mph94%30.09 "HgN/A
7:30 AM57 °FPartly sunny.5 mph94%30.09 "HgN/A
7:00 AM55 °FPassing clouds.7 mph100%30.09 "HgN/A
6:30 AM55 °FPassing clouds.5 mph100%30.12 "HgN/A
6:00 AM55 °FPassing clouds.5 mph94%30.12 "HgN/A
5:30 AM55 °FPassing clouds.5 mph94%30.12 "HgN/A
5:00 AM55 °FPassing clouds.3 mph94%30.12 "HgN/A
4:30 AM54 °FOvercast.2 mph100%30.12 "HgN/A
4:00 AM54 °FMostly cloudy.2 mph94%30.12 "HgN/A
3:30 AM54 °FPassing clouds.2 mph94%30.15 "HgN/A
3:00 AM54 °FPassing clouds.3 mph94%30.15 "HgN/A
Weather by CustomWeather, © 2016

See weather overviewHow to use our weather pages